TimeCST,TemperatureF,Dew PointF,Humidity,Sea Level PressureIn,VisibilityMPH,Wind Direction,Wind SpeedMPH,Gust SpeedMPH,PrecipitationIn,Events,Conditions,WindDirDegrees,DateUTC
12:53 AM,27.0,23.0,85,30.24,6.0,Calm,Calm,-,N/A,,Clear,0,2013-01-08 06:53:00
1:53 AM,27.0,24.1,89,30.22,6.0,Calm,Calm,-,N/A,,Clear,0,2013-01-08 07:53:00
2:53 AM,26.1,23.0,88,30.22,6.0,Calm,Calm,-,N/A,,Clear,0,2013-01-08 08:53:00
3:53 AM,25.0,21.9,88,30.21,4.0,Calm,Calm,-,N/A,,Clear,0,2013-01-08 09:53:00
4:53 AM,26.1,21.9,84,30.22,5.0,Calm,Calm,-,N/A,,Clear,0,2013-01-08 10:53:00
6:53 AM,27.0,23.0,85,30.25,5.0,Calm,Calm,-,N/A,,Clear,0,2013-01-08 12:53:00
7:53 AM,26.1,21.9,84,30.27,4.0,Calm,Calm,-,N/A,,Clear,0,2013-01-08 13:53:00
8:53 AM,32.0,27.0,82,30.28,3.0,Calm,Calm,-,N/A,,Haze,0,2013-01-08 14:53:00
9:04 AM,33.8,28.4,81,30.26,2.5,Calm,Calm,-,N/A,,Haze,0,2013-01-08 15:04:00
9:14 AM,35.6,28.4,75,30.26,3.0,Calm,Calm,-,N/A,,Haze,0,2013-01-08 15:14:00
9:53 AM,37.9,30.9,76,30.27,5.0,Calm,Calm,-,N/A,,Haze,0,2013-01-08 15:53:00
10:53 AM,43.0,32.0,65,30.26,9.0,SE,4.6,-,N/A,,Clear,140,2013-01-08 16:53:00
11:53 AM,48.0,32.0,54,30.23,10.0,South,5.8,-,N/A,,Clear,190,2013-01-08 17:53:00
12:53 PM,51.1,34.0,52,30.19,10.0,South,5.8,-,N/A,,Overcast,170,2013-01-08 18:53:00
1:53 PM,53.1,36.0,52,30.17,10.0,South,5.8,-,N/A,,Clear,180,2013-01-08 19:53:00
2:53 PM,54.0,36.0,51,30.18,10.0,South,9.2,-,N/A,,Clear,180,2013-01-08 20:53:00
3:53 PM,52.0,37.9,59,30.17,10.0,SE,5.8,-,N/A,,Clear,140,2013-01-08 21:53:00
4:53 PM,50.0,37.9,63,30.20,10.0,South,5.8,-,N/A,,Clear,180,2013-01-08 22:53:00
5:53 PM,46.9,37.9,71,30.19,10.0,SE,4.6,-,N/A,,Clear,130,2013-01-08 23:53:00
6:53 PM,44.1,37.0,76,30.18,10.0,Calm,Calm,-,N/A,,Scattered Clouds,0,2013-01-09 00:53:00
7:53 PM,44.1,37.9,79,30.20,10.0,Calm,Calm,-,N/A,,Overcast,0,2013-01-09 01:53:00
8:53 PM,44.1,39.0,82,30.20,10.0,North,3.5,-,N/A,,Overcast,360,2013-01-09 02:53:00
9:53 PM,44.1,39.0,82,30.20,10.0,Calm,Calm,-,N/A,,Overcast,0,2013-01-09 03:53:00
10:53 PM,45.0,39.9,82,30.21,10.0,Calm,Calm,-,0.00,Rain,Light Rain,0,2013-01-09 04:53:00
11:53 PM,45.0,39.9,82,30.22,10.0,Calm,Calm,-,0.00,,Overcast,0,2013-01-09 05:53:00